Regional Weather Roundup
Issued by NWS Sioux Falls, SD

Home | Current Version | Previous Version | Graphics & Text | Print | Product List | Glossary On
Versions: 1 2 3 4 5 6 7 8 9 10 11 12 13 14 15 16 17 18 19 20 21 22 23 24 25 26 27 28 29 30 31 32 33 34 35 36 37 38 39 40 41 42 43 44 45 46 47 48 49 50
000
ASUS43 KFSD 302202
RWRFSD

WEATHER ROUNDUP FOR SE SOUTH DAKOTA/SW MINNESOTA/NW IOWA
NATIONAL WEATHER SERVICE SIOUX FALLS SD
500 PM CDT THU OCT 30 2014

NOTE: "FAIR" INDICATES FEW OR NO CLOUDS BELOW 12,000 FEET WITH NO
SIGNIFICANT WEATHER AND OR OBSTRUCTIONS TO VISIBILITY.


SDZ038>040-050-052>070-302300-
SOUTHEAST SOUTH DAKOTA

CITY           SKY/WX    TMP DP  RH WIND       PRES   REMARKS
CHAMBERLAIN    SUNNY     47  32  56 N12G18    30.34R
HURON          CLOUDY    43  32  65 N23G29    30.35R
MADISON        CLOUDY    41  39  93 N21       30.27R
MITCHELL       CLOUDY    44  35  70 N22G30    30.33R
SIOUX FALLS    CLOUDY    45  39  79 N18G25    30.24R
WINNER         FAIR      47  32  56 N20       30.35R
YANKTON        CLOUDY    45  37  76 NW17G28   30.27R
$$

MNZ071-072-080-081-089-090-097-098-302300-
SOUTHWEST MINNESOTA

CITY           SKY/WX    TMP DP  RH WIND       PRES   REMARKS
FAIRMONT       CLOUDY    50  34  53 N22       30.15R
JACKSON        CLOUDY    48  37  66 N18G28    30.17R
LUVERNE        CLOUDY    46  37  71 N16G28    30.23R
MARSHALL       CLOUDY    43  32  65 N29G35    30.23R
MONTEVIDEO     CLOUDY    41  34  75 N21       30.27R
PIPESTONE      CLOUDY    43  37  81 N18G26    30.23R
REDWOOD FALLS  CLOUDY    46  37  71 N15G23    30.21R
TRACY          CLOUDY    44  39  82 N20G29    30.23R
WINDOM         CLOUDY    46  39  76 NW17G26   30.19R
WORTHINGTON    CLOUDY    45  37  76 N24       30.20R
$$

IAZ001>003-012>014-020>022-031-032-NEZ013-014-SDZ071-302300-
NORTHWEST IOWA

CITY           SKY/WX    TMP DP  RH WIND       PRES   REMARKS
CHEROKEE       CLOUDY    54  39  57 N18G24    30.14R
DENISON        MOSUNNY   59  37  44 N21       30.08R
ESTHERVILLE    CLOUDY    51  37  58 N17       30.14R
LE MARS        PTSUNNY   54  41  62 N22G33    30.18R
ORANGE CITY    CLOUDY    52  39  62 N18G31    30.18R
SHELDON        CLOUDY    48  39  71 N17G25    30.17R
SIOUX CITY     SUNNY     54  41  61 NW20G31   30.17R
SPENCER        CLOUDY    50  39  66 N21G29    30.16R
STORM LAKE     CLOUDY    54  39  58 N17G28    30.13R
$$

ABBREVIATIONS USED IN REMARKS
   TC - TEMPERATURE IN CELSIUS
  WCI - WIND CHILL INDEX
   HX - HEAT INDEX
  VSB - VISIBILITY




USA.gov is the U.S. government's official web portal to all federal, state and local government web resources and services.